Probability
61 65 61 58 52 42 39 42 42 29 29 26 23 19 16 19 13 6 13 13 10 10 10 13 0 3 3 3 0 0 0 0 0 0 0 0 0 0 0 0 0 0 3
65 61 68 65 55 42 35 32 35 29 32 29 26 19 10 13 0 6 10 13 10 10 10 10 0 3 0 0 0 0 0 0 0 0 0 0 0 0 0 0 0 0 0
65 65 68 58 55 52 35 32 35 26 26 26 26 23 6 10 6 3 6 10 6 6 10 0 3 3 0 0 0 0 0 0 0 0 0 0 0 0 0 0 0 0 0
61 58 55 65 55 45 48 29 32 26 23 23 19 19 10 3 3 0 3 3 6 6 10 0 6 3 0 0 0 0 0 0 0 0 0 0 0 0 0 0 0 0 0
65 68 58 58 55 48 45 42 29 26 26 23 19 19 10 3 3 3 0 0 3 6 6 3 3 0 0 0 0 0 0 0 0 0 0 0 0 0 0 0 0 0 0
71 71 65 55 48 52 52 42 39 32 32 29 23 19 19 10 6 0 3 3 0 0 10 10 0 0 0 0 0 0 0 0 0 0 0 0 0 0 0 0 0 0 0
65 61 65 52 52 55 48 45 42 42 35 35 26 23 23 16 6 3 3 3 3 3 6 6 0 0 0 0 0 0 0 0 0 0 0 0 0 0 0 0 0 0 0
61 61 61 52 55 55 52 48 42 42 39 42 35 35 26 23 13 10 3 3 6 6 3 3 3 0 0 0 0 0 0 0 0 3 0 0 0 0 0 0 0 0 0
61 61 61 55 55 55 55 52 42 39 45 45 32 26 23 23 16 16 16 10 6 0 0 3 3 0 0 0 3 3 3 3 3 0 0 0 0 0 0 0 0 0 0
61 61 61 55 55 58 58 45 48 45 45 35 35 29 26 19 19 16 13 13 6 6 3 3 0 0 0 0 0 3 3 3 3 3 0 0 0 0 0 0 0 0 0
61 65 58 58 58 58 52 45 42 45 29 29 32 32 32 29 23 19 13 13 10 6 6 3 0 0 0 0 0 0 3 3 3 0 0 0 0 0 0 0 0 0 0
48 42 52 61 58 52 48 45 42 35 32 32 32 32 35 29 29 26 16 16 19 13 6 3 0 0 3 0 0 0 0 0 0 0 0 0 0 0 0 0 0 0 0
35 42 48 52 52 48 48 42 45 32 32 29 35 35 26 23 26 23 23 16 16 16 10 10 6 3 3 3 0 0 0 0 0 0 0 0 3 3 0 0 0 0 0
45 42 48 48 45 52 52 45 39 35 32 32 32 26 23 16 19 16 16 19 16 13 10 6 3 3 3 3 3 3 3 3 0 0 0 0 0 0 3 0 0 0 0
45 45 42 39 45 52 48 45 45 35 39 29 23 19 19 16 13 10 13 13 13 13 13 6 6 6 3 3 3 3 3 0 0 0 0 0 0 0 0 0 0 0 0
52 48 52 39 48 48 55 45 42 32 32 23 19 19 19 19 16 16 16 19 19 10 6 10 6 3 6 0 0 0 0 0 0 0 0 0 0 0 0 0 0 0 0
55 58 58 55 52 52 48 39 35 35 32 26 19 19 23 19 16 19 16 10 10 10 6 6 6 6 3 0 0 0 0 0 0 0 0 3 3 0 0 0 0 0 0
55 52 61 52 55 52 42 35 32 35 29 23 23 23 19 19 16 13 13 13 13 13 6 6 10 6 3 0 0 0 0 0 0 0 0 0 0 0 0 0 0 0 0
58 55 61 58 55 48 39 35 35 35 26 26 26 23 23 19 10 10 10 10 10 10 10 10 10 6 3 0 0 0 0 0 0 0 0 0 0 0 0 0 0 0 0
55 68 58 52 55 48 42 39 42 32 26 23 16 16 16 13 10 10 10 10 10 10 10 10 10 6 3 3 0 0 0 0 0 0 0 0 0 0 0 0 0 0 0
52 58 52 55 52 48 48 42 39 26 16 13 13 13 10 6 6 6 6 6 10 10 10 10 10 10 3 3 0 0 0 0 0 0 0 0 0 0 0 0 0 0 0
42 45 45 48 39 42 35 32 32 16 13 13 13 13 6 6 6 6 6 6 6 10 10 10 10 6 3 3 0 0 0 0 0 0 0 0 0 0 0 0 0 0 0
39 42 45 39 32 32 35 29 26 13 13 13 13 10 6 6 6 6 6 6 6 6 6 6 6 3 3 0 0 0 0 0 0 0 0 0 0 0 0 0 0 0 0
29 26 32 32 26 26 19 23 19 13 13 13 10 6 6 6 6 6 6 6 6 6 6 6 6 6 0 0 0 0 0 0 0 0 0 0 0 0 0 0 0 0 0
26 26 26 23 19 23 23 16 13 10 10 10 3 3 3 6 6 3 3 6 3 3 3 6 6 6 0 0 0 0 0 0 0 0 0 0 0 0 0 0 0 0 0
23 19 13 10 13 13 16 13 6 6 6 6 6 3 3 3 0 3 3 3 3 3 3 3 3 3 0 0 0 0 0 0 0 0 0 0 0 0 0 0 0 0 0
Height
5920 5917 5914 5911 5908 5905 5903 5900 5898 5896 5895 5895 5895 5895 5896 5897 5898 5898 5899 5900 5901 5902 5902 5903 5903 5904 5904 5904 5905 5906 5905 5906 5906 5906 5906 5906 5906 5906 5905 5905 5905 5904 5904
5920 5917 5914 5911 5908 5905 5902 5899 5897 5895 5894 5894 5894 5894 5895 5895 5897 5898 5898 5899 5900 5900 5901 5902 5902 5903 5903 5904 5904 5904 5905 5905 5905 5905 5905 5905 5906 5905 5904 5904 5904 5903 5902
5920 5917 5914 5911 5907 5904 5901 5899 5896 5894 5893 5893 5893 5894 5894 5895 5896 5897 5898 5898 5899 5899 5900 5901 5901 5902 5902 5903 5903 5903 5904 5904 5904 5904 5904 5904 5904 5904 5903 5903 5902 5901 5901
5919 5916 5913 5910 5907 5903 5901 5898 5896 5894 5893 5893 5892 5893 5893 5894 5895 5896 5896 5897 5897 5898 5898 5899 5900 5900 5901 5901 5901 5902 5902 5902 5902 5902 5902 5902 5902 5902 5901 5901 5900 5899 5899
5918 5915 5912 5909 5906 5903 5900 5898 5896 5894 5893 5892 5891 5892 5892 5893 5894 5894 5895 5895 5896 5896 5897 5897 5898 5898 5899 5899 5899 5900 5900 5900 5900 5900 5900 5900 5899 5899 5899 5898 5898 5897 5896
5917 5914 5911 5908 5905 5902 5900 5897 5896 5894 5893 5892 5891 5891 5891 5891 5892 5893 5893 5893 5894 5894 5895 5895 5896 5896 5896 5897 5897 5897 5898 5897 5897 5897 5897 5897 5896 5896 5896 5895 5895 5894 5893
5916 5913 5910 5907 5904 5901 5899 5898 5896 5894 5893 5891 5890 5890 5890 5890 5890 5891 5891 5891 5892 5893 5893 5893 5893 5894 5894 5894 5895 5895 5895 5894 5894 5894 5894 5893 5893 5893 5893 5892 5891 5890 5889
5915 5912 5909 5906 5904 5901 5899 5898 5896 5895 5893 5891 5890 5889 5889 5889 5890 5890 5890 5890 5890 5891 5891 5891 5891 5892 5892 5892 5892 5892 5892 5891 5891 5890 5890 5890 5889 5889 5889 5888 5887 5886 5885
5914 5911 5908 5906 5903 5901 5899 5898 5896 5895 5893 5892 5890 5889 5889 5889 5889 5888 5888 5888 5889 5889 5889 5889 5889 5889 5889 5889 5889 5889 5888 5888 5887 5887 5886 5886 5885 5885 5884 5883 5882 5882 5881
5912 5910 5907 5905 5903 5901 5899 5898 5896 5894 5892 5891 5890 5889 5888 5888 5887 5887 5887 5887 5887 5887 5887 5887 5887 5887 5886 5886 5886 5885 5885 5884 5883 5883 5882 5882 5881 5880 5879 5878 5877 5876 5875
5910 5908 5906 5904 5902 5900 5898 5897 5895 5893 5892 5890 5889 5888 5887 5886 5886 5885 5885 5885 5885 5885 5884 5884 5884 5884 5884 5883 5882 5882 5881 5880 5879 5878 5878 5877 5876 5875 5874 5873 5872 5871 5870
5909 5907 5905 5903 5901 5899 5898 5896 5895 5893 5891 5889 5888 5887 5886 5885 5884 5884 5883 5883 5883 5883 5882 5882 5881 5881 5880 5880 5879 5878 5877 5876 5875 5874 5873 5872 5871 5871 5869 5868 5867 5866 5864
5907 5905 5904 5902 5900 5898 5897 5895 5893 5891 5890 5888 5887 5885 5884 5884 5883 5882 5881 5881 5880 5880 5879 5879 5878 5878 5877 5876 5875 5874 5873 5872 5871 5869 5868 5867 5866 5865 5864 5863 5861 5860 5858
5905 5903 5902 5901 5899 5897 5896 5894 5892 5890 5888 5887 5885 5884 5883 5882 5881 5880 5879 5878 5878 5877 5876 5875 5875 5874 5873 5872 5871 5869 5868 5867 5865 5864 5863 5862 5861 5859 5858 5857 5855 5854 5852
5903 5902 5900 5899 5897 5896 5894 5892 5890 5888 5887 5885 5883 5882 5881 5879 5878 5878 5877 5876 5875 5874 5873 5872 5871 5870 5868 5867 5866 5865 5863 5862 5860 5859 5858 5857 5855 5853 5852 5850 5849 5847 5845
5901 5899 5898 5897 5895 5893 5892 5890 5888 5887 5885 5883 5880 5879 5879 5877 5876 5875 5874 5873 5872 5871 5869 5868 5867 5865 5864 5862 5861 5860 5858 5857 5855 5854 5852 5850 5849 5847 5845 5843 5841 5840 5838
5896 5894 5894 5894 5892 5891 5889 5887 5886 5884 5882 5881 5879 5878 5877 5875 5874 5873 5871 5870 5868 5867 5866 5864 5862 5861 5859 5858 5856 5854 5853 5851 5850 5848 5846 5844 5842 5840 5838 5836 5834 5832 5830
5892 5891 5890 5890 5889 5887 5885 5884 5883 5882 5880 5878 5877 5876 5874 5873 5871 5870 5869 5867 5865 5864 5862 5860 5858 5856 5854 5853 5851 5849 5848 5846 5844 5842 5840 5838 5836 5834 5831 5829 5827 5824 5822
5888 5887 5886 5885 5884 5883 5882 5880 5879 5878 5876 5875 5874 5872 5871 5870 5868 5867 5865 5864 5862 5860 5858 5856 5853 5851 5850 5848 5846 5844 5842 5840 5838 5836 5833 5831 5829 5827 5824 5822 5819 5816 5814
5883 5883 5882 5881 5880 5879 5878 5876 5875 5874 5872 5871 5870 5868 5867 5866 5864 5863 5861 5860 5858 5855 5853 5851 5848 5846 5844 5842 5840 5838 5836 5834 5831 5829 5826 5824 5821 5819 5816 5814 5811 5808 5805
5878 5877 5876 5875 5874 5873 5872 5871 5870 5869 5868 5867 5865 5864 5863 5861 5860 5858 5856 5854 5852 5850 5848 5846 5844 5841 5839 5836 5834 5831 5829 5827 5824 5822 5819 5816 5814 5811 5808 5805 5802 5799 5796
5872 5870 5869 5868 5868 5867 5866 5866 5864 5863 5862 5861 5860 5859 5858 5856 5854 5852 5851 5849 5847 5844 5842 5840 5837 5835 5833 5830 5828 5825 5822 5820 5817 5814 5812 5809 5806 5803 5800 5797 5794 5791 5788
5866 5864 5863 5862 5861 5861 5860 5859 5859 5858 5856 5855 5854 5853 5851 5850 5848 5846 5844 5842 5840 5838 5835 5833 5831 5829 5826 5823 5821 5818 5815 5812 5810 5807 5804 5801 5798 5795 5792 5789 5785 5782 5779
5859 5858 5857 5856 5855 5855 5854 5853 5852 5852 5850 5849 5848 5846 5844 5842 5841 5839 5837 5835 5833 5831 5828 5826 5824 5821 5819 5816 5813 5810 5808 5805 5802 5799 5796 5793 5790 5786 5783 5780 5776 5773 5769
5852 5851 5850 5849 5849 5848 5848 5847 5846 5845 5844 5842 5841 5839 5837 5836 5834 5832 5829 5827 5825 5823 5821 5818 5816 5814 5811 5808 5805 5802 5799 5797 5794 5791 5788 5784 5781 5778 5774 5771 5767 5764 5760
5845 5844 5844 5843 5842 5841 5840 5839 5838 5837 5836 5835 5833 5832 5830 5828 5826 5824 5822 5819 5817 5815 5813 5810 5808 5805 5803 5800 5797 5794 5791 5788 5785 5782 5779 5776 5772 5769 5766 5762 5759 5755 5752
Wind_Speed
19 18 17 17 16 15 14 13 11 9 6 5 3 2 3 4 5 5 5 5 5 5 5 5 5 5 5 4 4 4 4 4 4 4 4 4 4 4 5 5 5 5 5
18 17 16 16 16 16 15 14 11 7 4 4 2 3 4 4 5 5 6 6 6 6 6 6 6 6 6 5 5 5 5 5 5 5 5 5 6 6 7 7 7 7 7
17 16 15 15 16 16 14 13 11 7 4 3 2 3 4 5 6 6 6 5 6 6 6 7 7 7 7 7 6 6 7 7 6 7 7 7 8 8 8 8 8 9 9
18 17 15 16 16 14 12 12 10 6 4 3 2 3 4 5 6 6 5 5 5 6 7 7 7 7 7 7 7 8 8 8 8 8 8 9 9 9 9 9 10 10 11
17 17 16 16 15 14 12 11 10 6 5 3 1 2 3 4 5 5 6 6 7 7 8 8 8 8 8 8 8 8 9 9 9 9 10 10 11 11 11 10 11 11 11
16 17 16 16 15 13 11 10 9 7 6 4 2 0 2 4 5 5 5 6 6 7 8 9 9 10 9 9 9 9 10 10 11 12 12 12 12 12 13 13 13 13 14
15 15 16 15 15 13 10 9 8 7 6 4 3 1 1 3 5 6 6 6 6 7 7 8 9 10 10 10 10 11 11 12 13 13 13 13 14 14 14 15 15 15 16
14 15 15 14 14 11 9 8 8 8 7 5 3 2 1 2 3 5 5 6 6 7 7 7 8 9 10 11 11 12 12 13 14 14 14 15 15 15 15 16 16 17 17
13 13 13 13 12 10 9 8 8 7 7 5 5 3 2 2 3 4 5 6 6 6 7 7 8 9 10 11 12 13 13 13 14 15 16 17 17 17 17 18 18 18 18
13 13 13 12 11 10 8 8 8 8 7 6 6 5 3 3 4 4 4 5 6 6 6 8 9 10 10 11 12 12 13 14 15 16 16 17 17 17 18 18 18 19 19
13 13 12 11 10 9 7 8 8 9 8 7 6 5 4 3 3 4 4 5 6 6 7 8 9 10 11 11 12 13 13 14 15 16 16 17 18 17 18 18 19 19 20
15 12 11 11 10 9 8 8 9 9 8 7 7 6 5 4 4 4 5 6 7 7 8 8 9 11 12 12 12 13 15 16 17 17 16 17 17 18 19 20 20 21 21
14 12 11 11 11 10 9 9 9 9 9 8 7 7 6 5 5 5 6 6 7 8 9 10 10 11 12 13 14 15 16 17 17 18 18 18 19 20 21 21 22 22 23
14 14 13 12 11 11 10 10 10 9 9 9 8 7 7 6 6 7 8 8 8 9 10 11 12 13 13 14 15 16 16 17 18 19 19 19 20 21 21 21 22 24 24
18 17 15 14 13 12 11 11 11 11 10 10 10 9 9 8 8 8 8 8 9 10 11 11 12 13 15 15 16 17 17 18 18 19 20 21 21 22 22 23 24 25 26
19 17 15 14 13 12 11 11 12 11 11 10 10 10 11 10 9 10 9 10 10 11 12 12 13 14 15 16 17 17 17 18 19 20 20 21 22 23 23 24 25 25 26
20 18 16 15 14 13 12 12 12 12 11 11 11 11 11 11 11 11 11 12 12 12 13 14 15 15 16 16 17 17 18 18 19 20 21 21 22 23 24 24 25 26 26
22 21 18 17 15 14 13 13 13 13 13 13 12 13 13 12 13 13 13 13 13 13 14 15 16 16 17 17 17 18 18 19 20 20 21 22 23 24 25 26 26 26 27
23 21 20 19 17 16 16 16 15 15 15 14 14 14 14 14 14 14 15 15 16 16 16 17 17 17 18 18 18 19 20 21 21 22 22 23 24 25 25 26 27 27 28
22 21 21 20 19 18 18 18 17 17 16 16 16 16 17 17 18 17 17 18 18 19 19 18 18 19 19 20 20 21 22 22 23 23 24 25 25 26 27 27 27 28 28
23 22 22 21 21 20 20 20 20 19 18 18 18 19 19 20 20 20 20 21 21 21 21 21 21 21 21 22 23 23 24 24 24 24 25 26 27 27 27 28 28 29 29
25 24 23 22 22 22 21 21 21 21 20 20 20 21 21 21 21 22 22 22 23 23 24 23 22 22 23 24 25 25 25 26 26 26 27 28 28 28 28 29 30 30 30
25 25 24 24 24 23 22 22 22 22 22 22 22 22 23 23 23 24 24 24 25 25 24 24 24 24 25 26 26 26 27 27 27 27 27 28 29 29 30 30 31 31 31
27 27 27 25 25 24 24 24 23 23 23 24 24 24 25 25 25 26 26 26 26 26 26 26 26 26 27 28 27 27 27 27 28 28 29 29 30 30 31 31 31 31 32
28 27 26 26 25 25 25 25 25 25 25 26 26 26 26 26 27 27 27 28 27 27 28 28 28 28 28 28 28 28 28 28 29 29 29 30 31 31 31 31 31 31 32
28 28 27 27 27 27 28 28 27 27 27 27 27 27 27 27 27 27 28 28 28 28 28 29 29 29 29 29 29 29 29 30 30 30 30 30 31 30 31 30 31 31 32
Wind_Direction
356 355 354 355 355 352 351 348 341 334 316 308 304 225 203 214 217 215 215 211 211 211 215 215 219 220 223 228 231 238 241 239 239 246 254 254 255 262 267 266 267 273 277
352 352 352 353 353 353 352 352 347 334 313 306 281 230 221 211 204 213 218 217 216 213 213 214 218 221 225 230 233 239 240 242 245 251 258 266 263 264 265 268 269 271 275
351 353 353 352 355 354 355 354 352 350 327 309 258 235 218 208 211 217 218 217 215 216 219 220 224 230 232 237 240 246 248 249 252 255 259 262 264 268 269 270 271 271 275
349 350 351 351 353 354 357 358 358 0 357 345 288 226 209 214 214 216 218 220 222 223 225 226 231 235 239 244 247 248 251 254 256 259 259 262 267 268 269 272 272 270 273
345 346 348 347 349 350 353 357 2 13 10 359 346 218 218 213 210 216 225 226 226 231 233 234 233 237 243 247 249 250 253 256 260 261 261 263 266 267 268 271 274 275 277
342 346 348 347 348 348 350 359 7 14 13 15 24 2 223 216 217 225 231 228 229 238 241 242 243 245 247 252 255 256 258 261 264 264 264 264 264 266 265 267 272 276 275
343 346 348 347 348 352 357 3 10 14 14 17 11 354 245 213 223 232 233 238 244 251 253 251 250 251 250 254 258 264 266 267 268 270 270 268 267 267 268 271 275 279 278
341 344 348 348 349 355 5 9 13 12 12 18 14 6 325 229 232 237 245 249 254 259 261 258 257 256 255 260 264 268 272 273 270 269 271 271 272 271 271 273 276 278 278
342 343 344 349 353 358 4 7 7 7 6 1 349 342 309 273 260 254 249 251 259 267 264 262 264 262 261 265 269 271 271 273 272 271 272 272 272 272 273 274 276 277 274
343 342 343 348 351 354 357 358 1 1 356 351 346 341 321 298 280 271 259 252 261 266 262 264 265 268 267 268 271 272 273 278 278 275 276 273 274 276 276 277 278 278 279
340 342 344 346 347 349 349 347 352 354 356 351 351 344 328 310 297 283 275 268 270 268 268 269 270 274 276 274 277 280 280 281 283 278 276 275 277 278 280 278 280 280 281
332 339 345 346 345 346 346 344 345 347 347 348 346 345 338 316 304 288 277 275 274 275 275 279 277 277 280 279 282 283 282 283 284 285 282 279 282 280 280 280 281 283 284
328 332 337 338 337 336 339 337 338 340 340 341 342 340 337 326 312 301 290 283 280 281 278 278 281 283 284 284 285 286 285 285 285 284 283 283 283 283 281 281 281 282 284
327 330 328 326 329 330 331 331 331 329 331 332 333 330 329 320 311 305 298 292 290 288 285 283 286 285 284 286 287 288 288 286 286 285 283 284 284 284 283 281 282 282 284
321 322 321 316 319 323 324 326 328 327 325 323 321 323 317 313 306 304 303 299 296 296 292 291 293 289 287 289 291 291 289 289 287 284 284 285 286 285 284 283 283 284 285
312 314 314 312 312 317 318 318 320 320 322 321 321 318 319 314 308 305 307 305 301 300 299 297 296 293 294 295 295 294 292 291 289 287 286 288 287 285 285 285 286 286 286
306 307 308 307 304 307 309 309 312 314 316 315 314 317 317 319 320 315 309 307 306 306 306 302 299 298 297 297 297 297 294 293 293 291 289 289 289 289 290 290 289 289 288
301 301 301 301 303 305 307 304 305 307 309 311 313 315 316 313 314 314 313 314 313 309 307 305 304 301 299 297 298 298 296 295 294 294 292 290 290 291 292 291 290 290 290
298 297 298 299 300 302 303 302 300 301 300 304 308 310 311 309 308 308 309 310 309 309 309 308 305 302 300 297 297 297 296 295 295 295 293 293 293 293 293 293 294 293 293
292 291 292 294 295 295 296 296 296 295 294 297 298 300 301 303 305 304 304 306 306 307 306 306 304 303 301 299 299 298 298 297 296 296 295 295 295 295 294 295 296 295 295
289 290 290 290 290 290 292 292 292 292 291 293 293 294 296 298 300 301 302 303 303 303 303 302 302 301 300 300 299 298 298 297 295 295 295 295 296 295 295 295 296 296 295
287 288 288 287 287 287 288 289 291 292 291 290 291 292 293 296 298 299 300 302 302 301 302 301 301 301 300 299 299 299 299 298 298 296 296 296 296 296 296 295 295 296 296
285 286 286 286 285 285 287 288 289 290 291 292 291 291 293 295 297 299 300 300 300 299 299 299 300 300 300 301 301 299 298 298 298 298 298 298 298 297 296 296 296 296 297
282 284 284 285 285 285 286 288 289 290 290 290 291 291 292 294 296 298 297 298 298 298 297 298 299 300 300 300 300 299 297 297 297 297 297 297 298 297 297 296 295 296 296
281 282 283 285 283 284 285 286 287 288 289 289 290 292 294 294 294 295 296 297 297 296 296 297 298 299 299 299 298 297 297 297 298 299 298 297 297 297 296 296 296 297 297
280 280 280 281 282 284 285 286 287 288 288 288 289 290 292 293 295 295 295 295 294 294 295 296 297 298 297 297 297 297 297 297 299 299 299 299 298 297 297 297 297 298 299